NIMIQ 6

Last updated on Thu Jul 03 2025 00:02:46 GMT+0000 (Coordinated Universal Time)

1 38342U 12026A 25183.54855041 -.00000166 00000+0 00000+0 0 9994 2 38342 0.0185 308.5524 0002519 151.8728 286.7660 1.00271299 46907
UTC large
Height (km)
Speed (km/s)
/
Latitude / Longitude
Inclination (degrees)
Orbital Period (minutes)
Azimuth
Elevation
Range (km)
Doppler Factor

Next 0 passes for location: London (51.5072 / 0.1276)

Sorry there are no passes over London.